Weather History for San Antonio, TX

Change the Weather History Date:

Thursday, October 11, 2012

  Actual Average Record
Temperature  
Mean Temperature 81 °F 73 °F  
Max Temperature 88 °F 84 °F 96 °F (1926)
Min Temperature 73 °F 62 °F 43 °F (1990)
Degree Days  
Heating Degree Days 0 0  
Month to date heating degree days 15 0  
Since 1 July heating degree days 15 2  
Cooling Degree Days 16 8  
Month to date cooling degree days 83 100  
Year to date cooling degree days 3323 2934  
Growing Degree Days 30 (Base 50)    
Moisture  
Dew Point 73 °F    
Average Humidity 82    
Maximum Humidity 100    
Minimum Humidity 63    
Precipitation  
Precipitation 0.25 in 0.14 in 1.67 in (1973)
Month to date precipitation 0.74 1.40  
Year to date precipitation 37.10 25.37  
Snow  
Snow 0.00 in - - ()
Month to date snowfall 0.0  
Since 1 July snowfall 0.0  
Since 1 September snowfall 0.0  
Snow Depth 0.00 in    
Sea Level Pressure  
Sea Level Pressure 30.06 in    
Wind  
Wind Speed 10 mph (SE)    
Max Wind Speed 21 mph    
Max Gust Speed 26 mph    
Visibility 9 miles    
Events Rain    
T = Trace of Precipitation, MM = Missing Value Source: NWS Daily Summary

Daily Weather History Graph

Daily Weather History Graph

Search for Another Location

Airport:

Trip Planner

Search our weather history database for the weather conditions in past years. The results will help you decide how hot, cold, wet, or windy it might be!

Date:

Astronomy

Oct. 11, 2012 Rise Set
Actual Time 7:33 AM CDT 7:07 PM CDT
Civil Twilight 7:09 AM CDT 7:31 PM CDT
Nautical Twilight 6:41 AM CDT 7:58 PM CDT
Astronomical Twilight 6:14 AM CDT 8:26 PM CDT
Moon 3:30 AM CDT (10/11) 4:29 PM CDT (10/11)
Length of Visible Light 12h 21m
Length of Day
11h 33m
Waning Crescent, 18% of the Moon is Illuminated
Oct 11
Waning Crescent
Oct 15
New
Oct 21
First Quarter
Oct 29
Full
Nov 6
Last Quarter

Hourly Weather History & Observations

Time (CDT) Temp. Heat Index Dew Point Humidity Pressure Visibility Wind Dir Wind Speed Gust Speed Precip Events Conditions
12:53 AM 73.0 °F - 71.1 °F 93% 30.05 in 10.0 mi SE 5.8 mph - N/A   Overcast
1:00 AM 73.4 °F - 71.6 °F 94% 30.10 in 10.0 mi SE 5.8 mph - N/A   Overcast
1:53 AM 73.0 °F - 71.1 °F 93% 30.04 in 10.0 mi ESE 4.6 mph - N/A   Overcast
2:53 AM 73.9 °F - 72.0 °F 93% 30.03 in 10.0 mi East 3.5 mph - N/A   Overcast
3:28 AM 73.4 °F - 71.6 °F 94% 30.08 in 10.0 mi East 3.5 mph - N/A   Overcast
3:53 AM 73.9 °F - 72.0 °F 93% 30.02 in 10.0 mi ESE 5.8 mph - N/A   Overcast
4:21 AM 73.4 °F - 73.4 °F 100% 30.08 in 10.0 mi ESE 4.6 mph - N/A   Overcast
4:53 AM 73.9 °F - 73.0 °F 97% 30.02 in 9.0 mi ESE 6.9 mph - 0.00 in Rain Light Rain
5:53 AM 73.0 °F - 73.0 °F 100% 30.02 in 2.0 mi ESE 3.5 mph - 0.11 in Rain Rain
5:56 AM 73.4 °F - 73.4 °F 100% 30.08 in 10.0 mi ESE 4.6 mph - 0.01 in Rain Rain
6:53 AM 73.9 °F - 73.9 °F 100% 30.03 in 7.0 mi ESE 5.8 mph - 0.02 in Rain Light Rain
7:35 AM 73.4 °F - 73.4 °F 100% 30.10 in 3.0 mi South 4.6 mph - 0.10 in Rain Rain
7:53 AM 73.9 °F - 73.9 °F 100% 30.05 in 3.0 mi SE 8.1 mph - 0.12 in   Overcast
8:29 AM 75.2 °F - 73.4 °F 94% 30.10 in 10.0 mi SSE 8.1 mph - N/A   Overcast
8:53 AM 75.0 °F - 73.9 °F 96% 30.06 in 10.0 mi SSE 8.1 mph - N/A   Overcast
9:27 AM 75.2 °F - 75.2 °F 100% 30.13 in 10.0 mi SE 10.4 mph - N/A   Overcast
9:53 AM 77.0 °F - 73.9 °F 90% 30.08 in 10.0 mi SSE 12.7 mph - N/A   Mostly Cloudy
10:34 AM 78.8 °F - 73.4 °F 83% 30.13 in 10.0 mi South 15.0 mph - N/A   Mostly Cloudy
10:53 AM 80.1 °F 84.5 °F 73.9 °F 81% 30.09 in 10.0 mi SSE 10.4 mph - N/A   Mostly Cloudy
11:53 AM 80.1 °F 84.2 °F 73.0 °F 79% 30.08 in 10.0 mi SSE 8.1 mph - N/A   Mostly Cloudy
12:14 PM 82.4 °F 88.2 °F 73.4 °F 74% 30.12 in 10.0 mi South 9.2 mph - N/A   Scattered Clouds
12:53 PM 84.0 °F 89.6 °F 72.0 °F 67% 30.06 in 10.0 mi SSE 13.8 mph 17.3 mph N/A   Mostly Cloudy
1:53 PM 84.9 °F 91.4 °F 73.0 °F 67% 30.03 in 10.0 mi SSE 11.5 mph - N/A   Scattered Clouds
2:53 PM 87.1 °F 94.5 °F 73.0 °F 63% 30.01 in 10.0 mi SSE 11.5 mph 17.3 mph N/A   Mostly Cloudy
3:53 PM 86.0 °F 93.0 °F 73.0 °F 65% 30.00 in 10.0 mi SE 10.4 mph - N/A   Mostly Cloudy
4:53 PM 82.4 °F 88.2 °F 73.4 °F 74% 30.05 in 10.0 mi ESE 18.4 mph 26.5 mph N/A   Mostly Cloudy
5:53 PM 81.0 °F 86.2 °F 73.9 °F 79% 30.00 in 10.0 mi SE 13.8 mph - N/A   Scattered Clouds
6:53 PM 78.1 °F - 73.9 °F 87% 30.00 in 10.0 mi ESE 10.4 mph - N/A   Scattered Clouds
7:53 PM 78.1 °F - 73.9 °F 87% 30.02 in 10.0 mi SE 12.7 mph - N/A   Mostly Cloudy
8:53 PM 78.1 °F - 72.0 °F 81% 30.05 in 10.0 mi SE 13.8 mph - N/A   Mostly Cloudy
9:53 PM 75.9 °F - 72.0 °F 87% 30.07 in 10.0 mi ESE 10.4 mph - N/A   Scattered Clouds
10:53 PM 75.0 °F - 71.1 °F 87% 30.09 in 10.0 mi SE 8.1 mph - N/A   Mostly Cloudy
11:53 PM 73.9 °F - 72.0 °F 93% 30.09 in 10.0 mi SE 11.5 mph - N/A   Overcast